• In Czech Republic
  • List of Countries
  • For 7 days
  • Water Temperature
  • Satellite Maps
  • Weather Map
  • Weather Widgets
  • user-avatar
    Login

    Hourly Weather Bolshie Lipovichi

    Today, 20 September, Thursday

    Time Temperature Precipitation Wind Pressure Humidity
    00:00 +17°C° 0 mm 3 mps 746 mmHg 93%
    01:00 +16°C° 0 mm 3 mps 746 mmHg 94%
    02:00 +16°C° 0 mm 2 mps 747 mmHg 95%
    03:00 +16°C° 0 mm 2 mps 747 mmHg 95%
    04:00 +15°C° 0 mm 2 mps 747 mmHg 96%
    05:00 +15°C° 0 mm 2 mps 747 mmHg 96%
    06:00 +16°C° 0 mm 2 mps 747 mmHg 93%
    07:00 +16°C° 0 mm 2 mps 747 mmHg 89%
    08:00 +17°C° 0 mm 2 mps 748 mmHg 86%
    09:00 +19°C° 0 mm 2 mps 748 mmHg 77%
    10:00 +20°C° 0 mm 3 mps 748 mmHg 68%
    11:00 +22°C° 0 mm 3 mps 748 mmHg 59%
    12:00 +24°C° 0 mm 3 mps 748 mmHg 56%
    13:00 +25°C° 0 mm 3 mps 748 mmHg 53%
    14:00 +25°C° 0 mm 3 mps 748 mmHg 50%
    15:00 +25°C° 0 mm 3 mps 748 mmHg 55%
    16:00 +24°C° 0 mm 2 mps 748 mmHg 60%
    17:00 +23°C° 0 mm 1 mps 748 mmHg 65%
    18:00 +22°C° 0 mm 1 mps 748 mmHg 70%
    19:00 +20°C° 0 mm 1 mps 748 mmHg 75%
    20:00 +19°C° 0 mm 1 mps 748 mmHg 80%
    21:00 +19°C° 0 mm 1 mps 748 mmHg 82%
    22:00 +18°C° 0 mm 1 mps 748 mmHg 85%
    23:00 +18°C° 0 mm 1 mps 748 mmHg 87%

    Tomorrow, 21 September, Friday

    Time Temperature Precipitation Wind Pressure Humidity
    00:00 +18°C° 0 mm 1 mps 748 mmHg 89%
    01:00 +18°C° 0 mm 1 mps 748 mmHg 90%
    02:00 +18°C° 0 mm 1 mps 748 mmHg 92%
    03:00 +16°C° 0 mm 2 mps 748 mmHg 92%
    04:00 +16°C° 0 mm 2 mps 748 mmHg 93%
    05:00 +16°C° 0 mm 2 mps 748 mmHg 93%
    06:00 +17°C° 0 mm 2 mps 748 mmHg 90%
    07:00 +18°C° 0 mm 2 mps 748 mmHg 87%
    08:00 +19°C° 0 mm 2 mps 748 mmHg 83%
    09:00 +21°C° 0 mm 3 mps 748 mmHg 77%
    10:00 +24°C° 0 mm 3 mps 748 mmHg 71%
    11:00 +25°C° 0 mm 3 mps 748 mmHg 64%
    12:00 +26°C° 0 mm 3 mps 748 mmHg 61%
    13:00 +26°C° 0 mm 4 mps 748 mmHg 58%
    14:00 +27°C° 0 mm 4 mps 748 mmHg 55%
    15:00 +26°C° 0 mm 3 mps 747 mmHg 59%
    16:00 +25°C° 0 mm 3 mps 747 mmHg 62%
    17:00 +24°C° 0 mm 3 mps 747 mmHg 65%
    18:00 +22°C° 0 mm 3 mps 746 mmHg 68%
    19:00 +20°C° 0 mm 3 mps 746 mmHg 71%
    20:00 +19°C° 0 mm 3 mps 746 mmHg 74%
    21:00 +19°C° 0 mm 4 mps 745 mmHg 73%
    22:00 +18°C° 0 mm 4 mps 745 mmHg 72%
    23:00 +18°C° 0 mm 4 mps 745 mmHg 71%

    Day after tomorrow, 22 September, Saturday

    Time Temperature Precipitation Wind Pressure Humidity
    00:00 +18°C° 0 mm 4 mps 744 mmHg 71%
    01:00 +17°C° 0 mm 5 mps 744 mmHg 72%
    02:00 +17°C° 0 mm 5 mps 743 mmHg 73%
    03:00 +16°C° 0 mm 5 mps 743 mmHg 73%
    04:00 +16°C° 0 mm 5 mps 743 mmHg 74%
    05:00 +16°C° 0 mm 5 mps 742 mmHg 74%
    06:00 +16°C° 0 mm 6 mps 742 mmHg 73%
    07:00 +17°C° 0 mm 6 mps 742 mmHg 72%
    08:00 +17°C° 0 mm 6 mps 742 mmHg 71%
    09:00 +17°C° 0.4 mm 5 mps 742 mmHg 74%
    10:00 +17°C° 0.4 mm 5 mps 742 mmHg 77%
    11:00 +17°C° 0.4 mm 5 mps 743 mmHg 80%
    12:00 +15°C° 1.2 mm 4 mps 743 mmHg 82%
    13:00 +14°C° 1.2 mm 4 mps 743 mmHg 84%
    14:00 +13°C° 1.2 mm 4 mps 743 mmHg 86%
    15:00 +13°C° 0.3 mm 3 mps 743 mmHg 85%
    16:00 +13°C° 0.3 mm 3 mps 744 mmHg 85%
    17:00 +12°C° 0.3 mm 3 mps 744 mmHg 85%
    18:00 +12°C° 0.3 mm 3 mps 744 mmHg 85%
    19:00 +11°C° 0.3 mm 3 mps 744 mmHg 85%
    20:00 +11°C° 0.3 mm 4 mps 744 mmHg 85%
    21:00 +10°C° 0.3 mm 4 mps 744 mmHg 85%
    22:00 +10°C° 0.3 mm 4 mps 744 mmHg 86%
    23:00 +10°C° 0.3 mm 4 mps 744 mmHg 86%

    23 September, Sunday

    Time Temperature Precipitation Wind Pressure Humidity
    00:00 +9°C° 0.1 mm 3 mps 744 mmHg 88%
    01:00 +9°C° 0.1 mm 3 mps 743 mmHg 90%
    02:00 +8°C° 0.1 mm 3 mps 743 mmHg 92%
    03:00 +8°C° 0 mm 3 mps 743 mmHg 93%
    04:00 +7°C° 0 mm 3 mps 743 mmHg 94%
    05:00 +7°C° 0 mm 3 mps 743 mmHg 95%
    06:00 +8°C° 0 mm 3 mps 742 mmHg 91%
    07:00 +7°C° 0 mm 4 mps 742 mmHg 88%
    08:00 +8°C° 0 mm 4 mps 742 mmHg 84%
    09:00 +10°C° 0 mm 5 mps 742 mmHg 78%
    10:00 +12°C° 0 mm 5 mps 742 mmHg 72%
    11:00 +13°C° 0 mm 6 mps 742 mmHg 66%
    12:00 +14°C° 0.2 mm 6 mps 742 mmHg 64%
    13:00 +14°C° 0.2 mm 7 mps 742 mmHg 63%
    14:00 +14°C° 0.2 mm 7 mps 742 mmHg 61%
    15:00 +13°C° 0.1 mm 6 mps 742 mmHg 64%
    16:00 +13°C° 0.1 mm 5 mps 742 mmHg 67%
    17:00 +12°C° 0.1 mm 4 mps 742 mmHg 70%
    18:00 +11°C° 0 mm 4 mps 742 mmHg 73%
    19:00 +10°C° 0 mm 4 mps 742 mmHg 76%
    20:00 +9°C° 0 mm 3 mps 742 mmHg 78%
    21:00 +9°C° 0 mm 3 mps 742 mmHg 81%
    22:00 +8°C° 0 mm 3 mps 742 mmHg 83%
    23:00 +8°C° 0 mm 3 mps 742 mmHg 85%

    24 September, Monday

    Time Temperature Precipitation Wind Pressure Humidity
    00:00 +7°C° 0 mm 3 mps 742 mmHg 86%
    01:00 +7°C° 0 mm 3 mps 741 mmHg 87%
    02:00 +6°C° 0 mm 2 mps 741 mmHg 88%
    03:00 +6°C° 0 mm 2 mps 741 mmHg 86%
    04:00 +6°C° 0 mm 2 mps 740 mmHg 85%
    05:00 +7°C° 0 mm 3 mps 740 mmHg 83%
    06:00 +7°C° 0 mm 3 mps 739 mmHg 80%
    07:00 +7°C° 0 mm 4 mps 739 mmHg 77%
    08:00 +8°C° 0 mm 5 mps 738 mmHg 73%
    09:00 +8°C° 1.1 mm 5 mps 737 mmHg 78%
    10:00 +7°C° 1.1 mm 6 mps 737 mmHg 83%
    11:00 +6°C° 1.1 mm 7 mps 736 mmHg 88%
    12:00 +7°C° 1.2 mm 8 mps 734 mmHg 88%
    13:00 +7°C° 1.2 mm 8 mps 733 mmHg 89%
    14:00 +7°C° 1.2 mm 9 mps 731 mmHg 89%
    15:00 +7°C° 2.4 mm 8 mps 730 mmHg 90%
    16:00 +9°C° 2.4 mm 7 mps 729 mmHg 91%
    17:00 +9°C° 2.4 mm 6 mps 728 mmHg 92%
    18:00 +10°C° 0.9 mm 6 mps 726 mmHg 93%
    19:00 +10°C° 0.9 mm 5 mps 725 mmHg 94%
    20:00 +12°C° 0.9 mm 4 mps 724 mmHg 95%
    21:00 +10°C° 0.7 mm 5 mps 723 mmHg 94%
    22:00 +10°C° 0.7 mm 5 mps 722 mmHg 93%
    23:00 +10°C° 0.7 mm 6 mps 722 mmHg 92%

    25 September, Tuesday

    Time Temperature Precipitation Wind Pressure Humidity
    00:00 +10°C° 0.6 mm 6 mps 722 mmHg 92%
    01:00 +9°C° 0.6 mm 5 mps 721 mmHg 92%
    02:00 +9°C° 0.6 mm 5 mps 721 mmHg 92%
    03:00 +8°C° 0.7 mm 5 mps 722 mmHg 92%
    04:00 +8°C° 0.7 mm 6 mps 722 mmHg 93%
    05:00 +8°C° 0.7 mm 6 mps 722 mmHg 93%
    06:00 +6°C° 0.4 mm 7 mps 723 mmHg 91%
    07:00 +6°C° 0.4 mm 7 mps 724 mmHg 89%
    08:00 +5°C° 0.4 mm 8 mps 725 mmHg 87%
    09:00 +6°C° 0.3 mm 8 mps 726 mmHg 87%
    10:00 +6°C° 0.3 mm 9 mps 727 mmHg 86%
    11:00 +6°C° 0.3 mm 9 mps 729 mmHg 85%
    12:00 +6°C° 0.3 mm 9 mps 730 mmHg 84%
    13:00 +5°C° 0.3 mm 10 mps 731 mmHg 84%
    14:00 +5°C° 0.3 mm 10 mps 732 mmHg 83%
    15:00 +5°C° 0.2 mm 10 mps 733 mmHg 82%
    16:00 +5°C° 0.2 mm 9 mps 734 mmHg 82%
    17:00 +5°C° 0.2 mm 9 mps 735 mmHg 81%
    18:00 +4°C° 0 mm 8 mps 736 mmHg 80%
    19:00 +4°C° 0 mm 8 mps 737 mmHg 79%
    20:00 +4°C° 0 mm 7 mps 738 mmHg 78%
    21:00 +3°C° 0 mm 7 mps 738 mmHg 78%
    22:00 +2°C° 0 mm 6 mps 739 mmHg 77%
    23:00 +2°C° 0 mm 6 mps 740 mmHg 77%
    Show more